Regional Weather Roundup
Issued by NWS

Home | Current Version | Previous Version | Text Only | Print | Product List | Glossary Off
Versions: 1 2 3 4 5 6 7 8 9 10 11 12 13 14 15 16 17 18 19 20 21 22 23 24 25 26 27 28 29 30 31 32 33 34 35 36 37 38 39 40 41 42 43 44 45 46 47 48 49 50

000
ASUS43 KMKX 231221
RWRWI

WISCONSIN REGIONAL WEATHER ROUNDUP
NATIONAL WEATHER SERVICE MILWAUKEE/SULLIVAN WI
700 AM CDT SAT AUG 23 2014

NOTE: "FAIR" INDICATES FEW OR NO CLOUDS BELOW 12,000 FEET WITH NO
SIGNIFICANT WEATHER AND/OR OBSTRUCTIONS TO VISIBILITY.

WIZ001-002-006>008-014>016-023>028-231300-
NORTHWEST WISCONSIN

CITY           SKY/WX    TMP DP  RH WIND       PRES   REMARKS
SUPERIOR ARPT  CLOUDY    62  61  97 NE6       30.06R
6HR MIN TEMP:  58; 6HR MAX TEMP:  62;

ASHLAND        CLOUDY    62  61  96 CALM      30.06R
6HR MIN TEMP:  62; 6HR MAX TEMP:  64;

HAYWARD        CLOUDY    65  63  93 N3        30.05R
6HR MIN TEMP:  64; 6HR MAX TEMP:  65;

SIREN          CLOUDY    64  63  97 NE3       30.04S FOG
6HR MIN TEMP:  64; 6HR MAX TEMP:  66;

RICE LAKE      CLOUDY    66  64  93 CALM      30.05R
6HR MIN TEMP:  65; 6HR MAX TEMP:  67;

LADYSMITH      CLOUDY    66  65  96 N6        30.04S FOG
6HR MIN TEMP:  65; 6HR MAX TEMP:  67;

EAU CLAIRE     FOG       68  68 100 NE6       29.99S VSB 1
6HR MIN TEMP:  68; 6HR MAX TEMP:  70;

MENOMONIE      CLOUDY    67  66  97 N5        30.01F FOG
6HR MIN TEMP:  67; 6HR MAX TEMP:  71;

NEW RICHMOND   CLOUDY    67  66  96 NE5       30.02S
6HR MIN TEMP:  67; 6HR MAX TEMP:  69;

OSCEOLA        CLOUDY    68  68 100 NE3       30.04S
6HR MIN TEMP:  68; 6HR MAX TEMP:  69;

$$

WIZ003>005-009-010-017-018-231300-
NORTH CENTRAL WISCONSIN

CITY           SKY/WX    TMP DP  RH WIND       PRES   REMARKS
WOODRUFF       CLOUDY    67  65  93 CALM      30.04S FOG
6HR MIN TEMP:  67; 6HR MAX TEMP:  69;

RHINELANDER    CLOUDY    68  68 100 CALM      30.05R FOG
6HR MIN TEMP:  67; 6HR MAX TEMP:  69;

EAGLE RIVER    CLOUDY    67  67 100 CALM      30.05R FOG
6HR MIN TEMP:  67; 6HR MAX TEMP:  69; 6HR PCP:  0.02;

LAND O LAKES   CLOUDY    65  65 100 N3        30.07R FOG
6HR MIN TEMP:  65; 6HR MAX TEMP:  68;

PHILLIPS       CLOUDY    64  64 100 NE5       30.03F FOG
6HR MIN TEMP:  64; 6HR MAX TEMP:  65;

TOMAHAWK       FOG       67  66  96 CALM      30.04S VSB 1/2
6HR MIN TEMP:  67; 6HR MAX TEMP:  68;

MEDFORD        FOG       68  68 100 NE3       30.02R VSB 1/4
6HR MIN TEMP:  68; 6HR MAX TEMP:  69;

MERRILL        CLOUDY    69  69 100 E3        30.02R FOG
6HR MIN TEMP:  69; 6HR MAX TEMP:  70;

$$

WIZ029-030-035-036-043>047-231300-
CENTRAL WISCONSIN

CITY           SKY/WX    TMP DP  RH WIND       PRES   REMARKS
WAUSAU         FOG       69  69 100 E5        30.00R VSB 1/2
6HR MIN TEMP:  69; 6HR MAX TEMP:  73; 6HR PCP: TRACE;

MOSINEE        FOG       70  70 100 E3        30.02R VSB 1/8
MARSHFIELD     FOG       71  70  96 E3        30.01R VSB 1/4
6HR MIN TEMP:  71; 6HR MAX TEMP:  74;

STEVENS POINT  FOG       68  68  99 E5        30.01S VSB 1/4
6HR MIN TEMP:  68; 6HR MAX TEMP:  70;

WAUPACA        FOG       71  70  95 CALM      29.99F VSB 1/4
6HR MIN TEMP:  71; 6HR MAX TEMP:  73;

WAUTOMA        FOG       72  72 100 CALM      30.00R VSB 1/4
6HR MIN TEMP:  72; 6HR MAX TEMP:  74;

WISC RAPIDS    FOG       71  70  96 E3        30.01R VSB 1/2
6HR MIN TEMP:  71; 6HR MAX TEMP:  74;

CAMP DOUGLAS   FOG       73  73 100 E6        29.98R VSB 1/2
6HR MIN TEMP:  66; 6HR MAX TEMP:  72;

$$

WIZ011>013-019>022-031-037>040-048>050-231300-
NORTHEAST WISCONSIN

CITY           SKY/WX    TMP DP  RH WIND       PRES   REMARKS
ANTIGO         FOG       67  67 100 E3        30.04R VSB 1/4
6HR MIN TEMP:  67; 6HR MAX TEMP:  69;

STURGEON BAY   PTCLDY    66  64  94 E7        30.03R
6HR MIN TEMP:  66; 6HR MAX TEMP:  68;

GREEN BAY      CLOUDY    69  68  96 NE5       30.00R FOG
6HR MIN TEMP:  67; 6HR MAX TEMP:  70; 6HR PCP: TRACE;

MANITOWOC      CLOUDY    70  70 100 SE6       30.01S FOG
6HR MIN TEMP:  66; 6HR MAX TEMP:  69;

APPLETON       FOG       68  68 100 VRB6      30.00R VSB 1/2
CLINTONVILLE   FOG       68  68 100 E3        30.01R VSB 1/4
OSHKOSH        CLOUDY    72  70  93 E3        29.98R FOG
6HR MIN TEMP:  70; 6HR MAX TEMP:  73;

$$

WIZ032>034-041-042-053>061-231300-
SOUTHWEST WISCONSIN

CITY           SKY/WX    TMP DP  RH WIND       PRES   REMARKS
LA CROSSE      CLOUDY    73  70  90 NE3       29.95F
6HR MIN TEMP:  72; 6HR MAX TEMP:  74;

SPARTA         FOG       70  69  98 CALM      29.97F VSB<1/4
6HR MIN TEMP:  66; 6HR MAX TEMP:  70;

VIROQUA        PTSUNNY   71  71 100 E3        29.98S
6HR MIN TEMP:  70; 6HR MAX TEMP:  73;

BOSCOBEL       FOG       75  73  93 CALM      29.95S VSB 1/4
6HR MIN TEMP:  74; 6HR MAX TEMP:  77;

PRAIRIE DU CHI CLOUDY    75  73  92 CALM      29.94S FOG
6HR MIN TEMP:  73; 6HR MAX TEMP:  78;

PLATTEVILLE    CLOUDY    73  72  96 CALM      29.98S VSB 1/2
6HR MIN TEMP:  73; 6HR MAX TEMP:  76;

$$

WIZ056-057-062-063-064-067-068-231300-
SOUTH CENTRAL WISCONSIN

CITY           SKY/WX    TMP DP  RH WIND       PRES   REMARKS
BARABOO/DELLS  FOG       73  71  95 CALM      29.99R VSB<1/4
6HR MIN TEMP:  71; 6HR MAX TEMP:  74;

LONE ROCK      FOG       79  75  87 E7        29.96R VSB 1/4 HX  83
6HR MIN TEMP:  74; 6HR MAX TEMP:  79;

WATERTOWN      CLOUDY    70  70 100 SE5       29.98S FOG
6HR MIN TEMP:  70; 6HR MAX TEMP:  71;

MADISON        FOG       74  73  97 SE5       29.99R VSB 3/4
6HR MIN TEMP:  74; 6HR MAX TEMP:  76;

MIDDLETON      CLOUDY    76  76 100 SE3       29.99R
6HR MIN TEMP:  75; 6HR MAX TEMP:  78;

MONROE         FOG       72  72 100 SE5       29.98R VSB<1/4
JANESVILLE     CLOUDY    73  72  94 CALM      29.97R VSB 1/2
$$

WIZ051-052-058>065-066-070>072-231300-
SOUTHEAST WISCONSIN

CITY           SKY/WX    TMP DP  RH WIND       PRES   REMARKS
MILWAUKEE      FOG       70  68  93 NE8       29.99R VSB 1/4
6HR MIN TEMP:  68; 6HR MAX TEMP:  70;

WAUKESHA       FOG       68  68 100 E3        30.00S VSB 1/4
MILWAUKEE/TIMM FOG       70  66  88 CALM      30.00S VSB 1/2
RACINE         FOG       71  69  93 NE7       29.99F VSB 1/4
6HR MIN TEMP:  69; 6HR MAX TEMP:  71;

BURLINGTON     FOG       68  68 100 SE5       29.99R VSB 1/2
6HR MIN TEMP:  68; 6HR MAX TEMP:  70;

KENOSHA        FOG       70  70 100 E3        29.98S VSB<1/4
6HR MIN TEMP:  70; 6HR MAX TEMP:  71;

FOND DU LAC    CLOUDY    71  68  90 MISG      29.99S FOG
6HR MIN TEMP:  70; 6HR MAX TEMP:  72; 6HR PCP:  0.68;

SHEBOYGAN      CLOUDY    69  68  96 E5        30.00S FOG
6HR MIN TEMP:  68; 6HR MAX TEMP:  69; 6HR PCP:  0.02;

WEST BEND      FOG       68  66  94 E5        30.00S VSB<1/4
JUNEAU         HAZE      70  46  42 SE5       30.00S VSB 1/4
6HR MIN TEMP:  70; 6HR MAX TEMP:  71;

$$

LSZ147-162-231300-
LAKE SUPERIOR

STATION/POSITION TIME  TEMP    WIND        PRES    WAVE
                       AIR SEA DIR/SP/G            HT/PER
                 (UTC) (F)     (DEG/KT/KT) (MB)    (FT/S)
W MID LAKE BUOY  1150   59 58   60/ 10/ 12 1017.7R   1/ 3
DEVILS ISLAND    1200   61      70/ 10/ 11 1018.0R
PORT WING        1140   61      40/ 10/ 11 1017.6R
SAXON HARBOR     1100   62        CALM     1017.3
$$

LMZ867-665-643>646-231300-
LAKE MICHIGAN

STATION/POSITION TIME  TEMP    WIND        PRES    WAVE
                       AIR SEA DIR/SP/G            HT/PER
                 (UTC) (F)     (DEG/KT/KT) (MB)    (FT/S)
N MID LAKE BUOY  1150   67 65  120/  8/  8 1016.6R   0
NORTHPORT PIER   1100   67      90/  7/  8 1016.6
SISTER BAY       1041   68     140/  6/  8   N/A
KEWAUNEE LAKESHO 1200   67     110/  5/  6 1015.4R
SHEBOYGAN LAKESH 1200   68 66   CALM  /  1 1016.0R
ATWATER BUOY     1200   69      30/  8/ 10 1016.5R
MILWAUKEE LAKESH 1200   69      40/  7/  8   N/A
S MID LAKE BUOY  1150   70 69   90/  6/  8 1015.1S   0
KENOSHA   LAKESH 1200   71      40/  4/  6 1014.9S
$$

TC  - TEMPERATURE IN CELSIUS
VSB - VISIBILITY IN STATUTE MILES
WCI - WIND CHILL INDEX
HX  - HEAT INDEX



USA.gov is the U.S. government's official web portal to all federal, state and local government web resources and services.